Lansing, MI

10:11 AM EST on February 26, 2017 (GMT -0500)
Capital City

Weather History for KLAN - January, 2014

Change the Weather History Date:

Thursday, January 16, 2014

  Actual Average Record
Temperature  
Mean Temperature 22 °F 23 °F  
Max Temperature 28 °F 30 °F 55 °F (1949)
Min Temperature 16 °F 17 °F -17 °F (1984)
Degree Days  
Heating Degree Days 43 42  
Month to date heating degree days 742 663  
Since 1 July heating degree days 3405 3215  
Cooling Degree Days 0 0  
Month to date cooling degree days 0 0  
Year to date cooling degree days 0 0  
Moisture  
Dew Point 19 °F    
Average Humidity 80    
Maximum Humidity 92    
Minimum Humidity 67    
Precipitation  
Precipitation 0.08 in 0.06 in 1.40 in (1873)
Month to date precipitation 1.73 0.94  
Year to date precipitation 1.73 0.94  
Snow  
Snow 1.00 in 0.50 in 12.00 in (1873)
Month to date snowfall 16.8 7.3  
Since 1 July snowfall 33.3 24.1  
Snow Depth 5.00 in    
Sea Level Pressure  
Sea Level Pressure 29.67 in    
Wind  
Wind Speed 14 mph (South)    
Max Wind Speed 23 mph    
Max Gust Speed 28 mph    
Visibility 4 miles    
Events Snow    
T = Trace of Precipitation, MM = Missing Value Source: NWS Daily Summary

Daily Weather History Graph

Daily Weather History Graph

Search for Another Location

Airport or City:

Trip Planner

Search our weather history database for the weather conditions in past years. The results will help you decide how hot, cold, wet, or windy it might be!

Date:

Astronomy

Jan. 16, 2014 Rise Set
Actual Time 8:05 AM EST 5:31 PM EST
Civil Twilight 7:34 AM EST 6:02 PM EST
Nautical Twilight 6:59 AM EST 6:37 PM EST
Astronomical Twilight 6:25 AM EST 7:10 PM EST
Moon 6:24 PM EST (1/16) 7:56 AM EST (1/16)
Length of Visible Light 10h 27m
Length of Day
9h 25m
Full, 100% of the Moon is Illuminated
Jan 16
Full
Jan 24
Last Quarter
Jan 30
New
Feb 6
First Quarter
Feb 14
Full

Hourly Weather History & Observations

Time (EST) Temp. Windchill Dew Point Humidity Pressure Visibility Wind Dir Wind Speed Gust Speed Precip Events Conditions
12:53 AM 18.0 °F 5.4 °F 10.0 °F 71% 29.92 in 10.0 mi SSW 11.5 mph - N/A   Overcast
1:53 AM 18.0 °F 2.2 °F 9.0 °F 68% 29.91 in 10.0 mi SSW 18.4 mph 26.5 mph N/A   Overcast
2:53 AM 17.1 °F 1.5 °F 9.0 °F 71% 29.91 in 10.0 mi SSW 17.3 mph 26.5 mph N/A   Overcast
3:53 AM 17.1 °F 3.6 °F 10.0 °F 74% 29.86 in 10.0 mi South 12.7 mph 20.7 mph N/A   Overcast
4:45 AM 17.6 °F 2.7 °F 10.4 °F 73% 29.79 in 10.0 mi South 16.1 mph - N/A   Overcast
4:53 AM 17.1 °F 4.3 °F 10.0 °F 74% 29.82 in 10.0 mi South 11.5 mph - N/A   Overcast
5:53 AM 18.0 °F 3.6 °F 10.9 °F 74% 29.80 in 10.0 mi South 15.0 mph - N/A   Overcast
6:53 AM 19.0 °F 5.6 °F 10.9 °F 71% 29.76 in 10.0 mi South 13.8 mph 24.2 mph N/A   Overcast
7:53 AM 19.0 °F 4.5 °F 12.0 °F 74% 29.74 in 4.0 mi South 16.1 mph 23.0 mph 0.00 in Snow Light Snow
8:02 AM 19.4 °F 5.5 °F 12.2 °F 74% 29.70 in 1.5 mi South 15.0 mph - 0.00 in Snow Light Snow
8:37 AM 19.4 °F 6.0 °F 12.2 °F 74% 29.69 in 3.0 mi South 13.8 mph 23.0 mph 0.00 in Snow Light Snow
8:53 AM 19.0 °F 4.5 °F 12.9 °F 77% 29.73 in 3.0 mi South 16.1 mph - 0.00 in Snow Light Snow
9:00 AM 19.4 °F 4.1 °F 12.2 °F 74% 29.69 in 2.0 mi South 18.4 mph - 0.00 in Snow Light Snow
9:10 AM 19.4 °F 5.0 °F 14.0 °F 80% 29.69 in 2.0 mi South 16.1 mph 23.0 mph 0.00 in Snow Light Snow
9:26 AM 19.4 °F 5.0 °F 14.0 °F 80% 29.69 in 2.0 mi South 16.1 mph - 0.00 in Snow Light Snow
9:53 AM 19.9 °F 5.2 °F 15.1 °F 81% 29.74 in 2.0 mi South 17.3 mph 23.0 mph 0.00 in Snow Light Snow
10:06 AM 19.4 °F 4.1 °F 15.8 °F 86% 29.70 in 3.0 mi South 18.4 mph 24.2 mph 0.00 in Snow Light Snow
10:45 AM 21.2 °F 7.8 °F 15.8 °F 80% 29.69 in 3.0 mi South 15.0 mph - 0.00 in Snow Light Snow
10:53 AM 21.0 °F 7.1 °F 16.0 °F 81% 29.73 in 3.0 mi South 16.1 mph 23.0 mph 0.00 in Snow Light Snow
11:53 AM 21.9 °F 8.7 °F 16.0 °F 78% 29.70 in 8.0 mi South 15.0 mph - 0.00 in   Overcast
12:53 PM 23.0 °F 10.1 °F 17.1 °F 78% 29.66 in 9.0 mi South 15.0 mph - N/A   Overcast
1:53 PM 24.1 °F 11.5 °F 18.0 °F 77% 29.64 in 3.0 mi South 15.0 mph - 0.00 in Snow Light Snow
2:53 PM 25.0 °F 12.2 °F 19.0 °F 78% 29.63 in 10.0 mi South 16.1 mph 20.7 mph 0.00 in   Overcast
3:53 PM 25.0 °F 13.6 °F 19.0 °F 78% 29.62 in 10.0 mi South 12.7 mph - N/A   Overcast
4:53 PM 26.1 °F 14.0 °F 19.9 °F 78% 29.62 in 10.0 mi South 15.0 mph 20.7 mph N/A   Overcast
5:53 PM 26.1 °F 15.0 °F 19.9 °F 78% 29.63 in 9.0 mi South 12.7 mph - N/A   Overcast
6:14 PM 26.6 °F 15.7 °F 21.2 °F 80% 29.59 in 1.8 mi South 12.7 mph - 0.00 in Snow Light Snow
6:17 PM 26.6 °F 15.2 °F 21.2 °F 80% 29.59 in 0.8 mi South 13.8 mph - 0.00 in Snow Light Snow
6:27 PM 24.8 °F 14.0 °F 23.0 °F 93% 29.59 in 1.8 mi South 11.5 mph - 0.00 in Snow Light Snow
6:30 PM 24.8 °F 13.4 °F 23.0 °F 93% 29.59 in 2.5 mi SSE 12.7 mph - 0.00 in Snow Light Snow
6:38 PM 24.8 °F 13.4 °F 21.2 °F 86% 29.59 in 1.8 mi SSE 12.7 mph - 0.00 in Snow Light Snow
6:44 PM 24.8 °F 13.4 °F 21.2 °F 86% 29.59 in 1.2 mi SSE 12.7 mph - 0.00 in Snow Light Snow
6:53 PM 25.0 °F 14.2 °F 23.0 °F 92% 29.63 in 1.2 mi South 11.5 mph - 0.01 in Snow Light Snow
7:08 PM 24.8 °F 14.0 °F 23.0 °F 93% 29.59 in 2.0 mi SSE 11.5 mph - 0.00 in Snow Light Snow
7:16 PM 26.6 °F 16.2 °F 21.2 °F 80% 29.59 in 4.0 mi SSE 11.5 mph - 0.00 in Snow Light Snow
7:28 PM 26.6 °F 16.2 °F 23.0 °F 86% 29.59 in 2.0 mi South 11.5 mph - 0.00 in Snow Light Snow
7:35 PM 26.6 °F 16.2 °F 23.0 °F 86% 29.59 in 1.0 mi SSE 11.5 mph - 0.01 in Snow Light Snow
7:42 PM 26.6 °F 15.7 °F 23.0 °F 86% 29.59 in 1.2 mi SSE 12.7 mph - 0.01 in Snow Light Snow
7:53 PM 26.1 °F 16.2 °F 23.0 °F 88% 29.62 in 1.5 mi SSE 10.4 mph - 0.01 in Snow Light Snow
8:15 PM 26.6 °F 16.8 °F 23.0 °F 86% 29.58 in 1.5 mi South 10.4 mph - 0.01 in Snow Light Snow
8:35 PM 26.6 °F 15.7 °F 23.0 °F 86% 29.58 in 2.5 mi SSE 12.7 mph - 0.01 in Snow Light Snow
8:45 PM 26.6 °F 16.8 °F 23.0 °F 86% 29.59 in 2.0 mi South 10.4 mph - 0.01 in Snow Light Snow
8:53 PM 26.1 °F 15.6 °F 23.0 °F 88% 29.62 in 1.5 mi South 11.5 mph - 0.01 in Snow Light Snow
9:00 PM 26.6 °F 16.8 °F 23.0 °F 86% 29.59 in 1.2 mi South 10.4 mph - 0.01 in Snow Light Snow
9:10 PM 26.6 °F 16.2 °F 23.0 °F 86% 29.58 in 2.0 mi South 11.5 mph - 0.01 in Snow Light Snow
9:30 PM 26.6 °F 16.2 °F 23.0 °F 86% 29.58 in 2.5 mi South 11.5 mph - 0.01 in Snow Light Snow
9:50 PM 26.6 °F 16.8 °F 23.0 °F 86% 29.59 in 1.5 mi South 10.4 mph - 0.01 in Snow Light Snow
9:53 PM 26.1 °F 15.6 °F 23.0 °F 88% 29.63 in 1.2 mi South 11.5 mph - 0.01 in Snow Light Snow
10:32 PM 26.6 °F 15.7 °F 24.8 °F 93% 29.58 in 1.8 mi South 12.7 mph - 0.02 in Snow Light Snow
10:36 PM 26.6 °F 15.7 °F 24.8 °F 93% 29.59 in 3.0 mi South 12.7 mph - 0.02 in Snow Light Snow
10:53 PM 27.0 °F 15.6 °F 24.1 °F 89% 29.62 in 3.0 mi South 13.8 mph - 0.02 in Snow Light Snow
11:04 PM 26.6 °F 16.2 °F 24.8 °F 93% 29.58 in 2.0 mi South 11.5 mph - 0.00 in Snow Light Snow
11:23 PM 26.6 °F 16.8 °F 24.8 °F 93% 29.58 in 3.0 mi South 10.4 mph - 0.00 in Snow Light Snow
11:48 PM 28.4 °F 18.5 °F 24.8 °F 86% 29.58 in 2.0 mi South 11.5 mph - 0.00 in Snow Light Snow
11:53 PM 28.0 °F 18.1 °F 25.0 °F 88% 29.61 in 2.5 mi South 11.5 mph - 0.00 in Snow Light Snow